MLD026 LYTV-LUKK

Flight info

Callsign MLD026
Flight time 1h 25m
Altitude 33000
Route NIK DCT VTN DCT ANASA DCT LEBAT DCT BOTNA T34 LIPTA
Aircraft T154/M-SDGRWY/S

Departure

Time 2026-05-06 11:56
Airport Tivat Airport (LYTV)

Arrival

Time 2026-05-06 13:21
Airport Chişinău International Airport (LUKK)
Time Latitude Longitude Altitude Speed Heading
2026-05-06 11:10 42.41261 18.71643 33 ft 0 kts 164°
2026-05-06 11:47 42.41259 18.71644 36 ft 1 kts 165°
2026-05-06 11:47 42.41237 18.71648 36 ft 5 kts 176°
2026-05-06 11:47 42.41189 18.71664 35 ft 8 kts 148°
2026-05-06 11:47 42.41138 18.71719 36 ft 10 kts 139°
2026-05-06 11:48 42.41120 18.71740 36 ft 0 kts 139°
2026-05-06 11:48 42.41119 18.71741 36 ft 0 kts 139°
2026-05-06 11:48 42.41100 18.71764 37 ft 6 kts 139°
2026-05-06 11:48 42.41054 18.71819 38 ft 6 kts 138°
2026-05-06 11:49 42.41022 18.71843 38 ft 8 kts 175°
2026-05-06 11:49 42.40951 18.71804 37 ft 12 kts 174°
2026-05-06 11:49 42.40867 18.71868 38 ft 16 kts 143°
2026-05-06 11:49 42.40769 18.71986 40 ft 22 kts 126°
2026-05-06 11:50 42.40691 18.72094 41 ft 14 kts 135°
2026-05-06 11:50 42.40613 18.72182 40 ft 15 kts 143°
2026-05-06 11:50 42.40505 18.72296 40 ft 23 kts 142°
2026-05-06 11:50 42.40361 18.72453 40 ft 30 kts 140°
2026-05-06 11:51 42.40185 18.72658 37 ft 34 kts 138°
2026-05-06 11:51 42.40030 18.72841 36 ft 25 kts 133°
2026-05-06 11:51 42.39908 18.72993 36 ft 18 kts 124°
2026-05-06 11:51 42.39841 18.73088 38 ft 11 kts 134°
2026-05-06 11:52 42.39813 18.73122 38 ft 2 kts 139°
2026-05-06 11:52 42.39787 18.73151 39 ft 7 kts 141°
2026-05-06 11:52 42.39733 18.73206 40 ft 12 kts 147°
2026-05-06 11:52 42.39656 18.73246 40 ft 5 kts 174°
2026-05-06 11:53 42.39625 18.73278 40 ft 4 kts 41°
2026-05-06 11:53 42.39632 18.73279 40 ft 1 kts 349°
2026-05-06 11:53 42.39658 18.73269 41 ft 4 kts 326°
2026-05-06 11:53 42.39668 18.73259 41 ft 0 kts 322°
2026-05-06 11:55 42.39759 18.73158 39 ft 43 kts 320°
2026-05-06 11:55 42.40145 18.72708 37 ft 102 kts 319°
2026-05-06 11:55 42.40818 18.71891 39 ft 158 kts 321°
2026-05-06 11:55 42.41719 18.70776 265 ft 184 kts 314°
2026-05-06 11:56 42.42527 18.69484 890 ft 182 kts 298°
2026-05-06 11:56 42.42938 18.67865 1421 ft 189 kts 276°
2026-05-06 11:56 42.42795 18.66166 1952 ft 187 kts 227°
2026-05-06 11:56 42.41614 18.65465 2140 ft 200 kts 176°
2026-05-06 11:57 42.40164 18.65776 2432 ft 226 kts 165°
2026-05-06 11:57 42.38586 18.66402 2995 ft 245 kts 162°
2026-05-06 11:57 42.37011 18.67179 4034 ft 243 kts 158°
2026-05-06 11:57 42.35623 18.68438 4849 ft 249 kts 131°
2026-05-06 11:58 42.34745 18.70564 5237 ft 274 kts 105°
2026-05-06 11:58 42.34711 18.73115 6029 ft 283 kts 77°
2026-05-06 11:58 42.35511 18.75541 6716 ft 282 kts 60°
2026-05-06 11:58 42.36467 18.77745 7635 ft 264 kts 57°
2026-05-06 11:59 42.37690 18.79606 8007 ft 271 kts 47°
2026-05-06 11:59 42.39063 18.81451 8133 ft 287 kts 45°
2026-05-06 11:59 42.40553 18.83234 8656 ft 285 kts 39°
2026-05-06 11:59 42.42152 18.84719 9434 ft 273 kts 30°
2026-05-06 12:00 42.43762 18.85966 9990 ft 272 kts 30°
2026-05-06 12:00 42.45484 18.87237 10058 ft 292 kts 27°
2026-05-06 12:00 42.47370 18.88410 10277 ft 304 kts 21°
2026-05-06 12:00 42.49337 18.89381 10892 ft 299 kts 19°
2026-05-06 12:01 42.51244 18.90273 11783 ft 283 kts 18°
2026-05-06 12:01 42.53118 18.91105 12222 ft 286 kts 17°
2026-05-06 12:01 42.55084 18.91916 12193 ft 307 kts 15°
2026-05-06 12:01 42.57218 18.92695 12379 ft 318 kts 13°
2026-05-06 12:02 42.59323 18.93333 13115 ft 307 kts 10°
2026-05-06 12:02 42.61371 18.93851 13927 ft 294 kts 10°
2026-05-06 12:02 42.63376 18.94406 14128 ft 305 kts 11°
2026-05-06 12:02 42.65540 18.95033 13983 ft 329 kts 11°
2026-05-06 12:03 42.67815 18.95738 14197 ft 336 kts 12°
2026-05-06 12:03 42.70060 18.96459 14867 ft 327 kts 12°
2026-05-06 12:03 42.72217 18.97112 15548 ft 318 kts 10°
2026-05-06 12:03 42.74408 18.97661 15855 ft 322 kts
2026-05-06 12:04 42.76611 18.98505 15947 ft 338 kts 22°
2026-05-06 12:04 42.78764 18.99917 16133 ft 349 kts 27°
2026-05-06 12:04 42.80850 19.01564 16732 ft 349 kts 31°
2026-05-06 12:04 42.82847 19.03319 17527 ft 342 kts 32°
2026-05-06 12:05 42.84801 19.05125 18197 ft 340 kts 37°
2026-05-06 12:05 42.86505 19.07447 18248 ft 356 kts 50°
2026-05-06 12:05 42.88105 19.10103 18278 ft 369 kts 50°
2026-05-06 12:05 42.89651 19.12866 18725 ft 367 kts 52°
2026-05-06 12:06 42.91117 19.15647 19429 ft 355 kts 53°
2026-05-06 12:06 42.92514 19.18336 19869 ft 352 kts 53°
2026-05-06 12:06 42.93982 19.21112 19865 ft 368 kts 53°
2026-05-06 12:06 42.95480 19.24005 19774 ft 384 kts 53°
2026-05-06 12:07 42.97014 19.27037 20094 ft 386 kts 54°
2026-05-06 12:07 42.98476 19.29981 20795 ft 373 kts 53°
2026-05-06 12:07 42.99946 19.32844 21388 ft 363 kts 52°
2026-05-06 12:07 43.01443 19.35625 21599 ft 369 kts 51°
2026-05-06 12:08 43.02991 19.38490 21613 ft 384 kts 52°
2026-05-06 12:08 43.04565 19.41475 21892 ft 387 kts 52°
2026-05-06 12:08 43.06151 19.44415 22438 ft 378 kts 50°
2026-05-06 12:08 43.07747 19.47175 22936 ft 370 kts 47°
2026-05-06 12:09 43.09394 19.49855 23135 ft 375 kts 49°
2026-05-06 12:09 43.11027 19.52757 23047 ft 394 kts 51°
2026-05-06 12:09 43.12657 19.55871 22958 ft 410 kts 53°
2026-05-06 12:09 43.14282 19.59071 23181 ft 411 kts 53°
2026-05-06 12:10 43.15886 19.62228 23617 ft 400 kts 53°
2026-05-06 12:10 43.17404 19.65365 24083 ft 390 kts 55°
2026-05-06 12:10 43.18863 19.68452 24268 ft 394 kts 56°
2026-05-06 12:10 43.20354 19.71668 24262 ft 404 kts 56°
2026-05-06 12:11 43.21904 19.74938 24370 ft 412 kts 54°
2026-05-06 12:11 43.23545 19.78159 24690 ft 412 kts 52°
2026-05-06 12:11 43.25299 19.81222 25175 ft 406 kts 49°
2026-05-06 12:11 43.27023 19.84231 25658 ft 402 kts 51°
2026-05-06 12:12 43.28612 19.87400 25948 ft 405 kts 57°
2026-05-06 12:12 43.29995 19.90818 26026 ft 416 kts 62°
2026-05-06 12:12 43.31204 19.94425 26097 ft 425 kts 66°
2026-05-06 12:12 43.32292 19.98191 26364 ft 428 kts 68°
2026-05-06 12:13 43.33304 20.02020 26807 ft 422 kts 69°
2026-05-06 12:13 43.34286 20.05784 27255 ft 417 kts 68°
2026-05-06 12:13 43.35361 20.09442 27523 ft 416 kts 64°
2026-05-06 12:13 43.36676 20.12994 27564 ft 424 kts 57°
2026-05-06 12:14 43.38323 20.16411 27536 ft 434 kts 50°
2026-05-06 12:14 43.40135 20.19779 27713 ft 439 kts 52°
2026-05-06 12:14 43.41864 20.23168 28199 ft 434 kts 52°
2026-05-06 12:14 43.43524 20.26579 28840 ft 424 kts 55°
2026-05-06 12:15 43.45031 20.29980 29309 ft 419 kts 57°
2026-05-06 12:15 43.46492 20.33453 29469 ft 425 kts 57°
2026-05-06 12:15 43.48011 20.37032 29377 ft 438 kts 56°
2026-05-06 12:15 43.49609 20.40627 29258 ft 452 kts 56°
2026-05-06 12:16 43.52902 20.48139 29593 ft 457 kts 56°
2026-05-06 12:16 43.54522 20.51771 30236 ft 445 kts 54°
2026-05-06 12:16 43.56079 20.55388 30910 ft 434 kts 58°
2026-05-06 12:17 43.57482 20.59042 31342 ft 433 kts 60°
2026-05-06 12:17 43.58834 20.62775 31280 ft 447 kts 60°
2026-05-06 12:17 43.60257 20.66680 30939 ft 469 kts 60°
2026-05-06 12:17 43.61852 20.70700 30591 ft 488 kts 56°
2026-05-06 12:18 43.63577 20.74797 30446 ft 497 kts 59°
2026-05-06 12:18 43.65168 20.78964 30858 ft 489 kts 60°
2026-05-06 12:18 43.66685 20.83088 31612 ft 471 kts 60°
2026-05-06 12:18 43.68124 20.86986 32253 ft 456 kts 60°
2026-05-06 12:19 43.69574 20.90879 32609 ft 455 kts 59°
2026-05-06 12:19 43.71026 20.94787 32627 ft 465 kts 60°
2026-05-06 12:19 43.74105 21.02707 33079 ft 470 kts 57°
2026-05-06 12:20 43.75699 21.06666 33303 ft 470 kts 58°
2026-05-06 12:20 43.77242 21.10592 33393 ft 471 kts 58°
2026-05-06 12:20 43.80464 21.18507 33401 ft 478 kts 56°
2026-05-06 12:21 43.83832 21.26486 33398 ft 478 kts 56°
2026-05-06 12:21 43.87125 21.34432 33390 ft 478 kts 58°
2026-05-06 12:22 43.90198 21.42584 33380 ft 477 kts 59°
2026-05-06 12:22 43.93184 21.50753 33393 ft 477 kts 59°
2026-05-06 12:23 43.96184 21.58937 33429 ft 476 kts 60°
2026-05-06 12:23 43.98848 21.67315 33235 ft 479 kts 63°
2026-05-06 12:24 44.00176 21.71513 33037 ft 478 kts 62°
2026-05-06 12:24 44.01633 21.75694 32876 ft 475 kts 58°
2026-05-06 12:24 44.03243 21.79600 33069 ft 462 kts 53°
2026-05-06 12:24 44.04877 21.83387 33245 ft 457 kts 58°
2026-05-06 12:25 44.07677 21.91199 33401 ft 450 kts 60°
2026-05-06 12:25 44.10541 21.98838 33408 ft 445 kts 55°
2026-05-06 12:26 44.14075 22.05816 33393 ft 438 kts 46°
2026-05-06 12:26 44.17950 22.12298 33413 ft 440 kts 46°
2026-05-06 12:27 44.22085 22.18759 33452 ft 453 kts 42°
2026-05-06 12:27 44.25866 22.25765 33442 ft 458 kts 57°
2026-05-06 12:28 44.28477 22.33936 33443 ft 464 kts 66°
2026-05-06 12:28 44.30448 22.42479 33419 ft 465 kts 69°
2026-05-06 12:29 44.32501 22.50992 33399 ft 462 kts 64°
2026-05-06 12:29 44.35016 22.59195 33396 ft 461 kts 62°
2026-05-06 12:30 44.37701 22.67301 33363 ft 461 kts 62°
2026-05-06 12:30 44.40344 22.75398 33350 ft 461 kts 62°
2026-05-06 12:31 44.42881 22.83612 33374 ft 461 kts 63°
2026-05-06 12:31 44.45374 22.91872 33392 ft 461 kts 63°
2026-05-06 12:32 44.47851 23.00107 33411 ft 460 kts 63°
2026-05-06 12:32 44.50320 23.08356 33417 ft 460 kts 63°
2026-05-06 12:33 44.52760 23.16543 33415 ft 459 kts 63°
2026-05-06 12:33 44.55205 23.24781 33415 ft 458 kts 63°
2026-05-06 12:34 44.57641 23.33030 33414 ft 457 kts 63°
2026-05-06 12:34 44.60051 23.41226 33413 ft 457 kts 63°
2026-05-06 12:35 44.62448 23.49419 33412 ft 456 kts 63°
2026-05-06 12:35 44.64841 23.57654 33414 ft 456 kts 63°
2026-05-06 12:36 44.67220 23.65892 33416 ft 456 kts 64°
2026-05-06 12:36 44.69582 23.74144 33396 ft 457 kts 64°
2026-05-06 12:37 44.72030 23.82340 33412 ft 456 kts 62°
2026-05-06 12:37 44.74569 23.90452 33420 ft 455 kts 62°
2026-05-06 12:38 44.77138 23.98549 33414 ft 455 kts 62°
2026-05-06 12:38 44.79697 24.06637 33406 ft 455 kts 62°
2026-05-06 12:39 44.82237 24.14708 33406 ft 453 kts 62°
2026-05-06 12:39 44.84988 24.22619 33404 ft 449 kts 59°
2026-05-06 12:40 44.87824 24.30389 33401 ft 448 kts 58°
2026-05-06 12:40 44.90739 24.38167 33408 ft 448 kts 58°
2026-05-06 12:41 44.93701 24.46035 33438 ft 459 kts 58°
2026-05-06 12:41 44.96659 24.53903 33436 ft 457 kts 58°
2026-05-06 12:42 44.99639 24.61867 33427 ft 457 kts 58°
2026-05-06 12:42 45.02370 24.69961 33376 ft 460 kts 63°
2026-05-06 12:43 45.04868 24.78256 33386 ft 460 kts 64°
2026-05-06 12:43 45.07336 24.86576 33394 ft 460 kts 64°
2026-05-06 12:44 45.09805 24.94913 33401 ft 460 kts 64°
2026-05-06 12:44 45.12288 25.03202 33383 ft 460 kts 63°
2026-05-06 12:45 45.14790 25.11476 33409 ft 459 kts 63°
2026-05-06 12:46 45.18545 25.23934 33393 ft 460 kts 63°
2026-05-06 12:46 45.19791 25.28083 33269 ft 460 kts 63°
2026-05-06 12:46 45.21041 25.32250 33112 ft 459 kts 63°
2026-05-06 12:46 45.22270 25.36355 32919 ft 459 kts 63°
2026-05-06 12:47 45.23505 25.40489 32836 ft 456 kts 63°
2026-05-06 12:47 45.25978 25.48774 32852 ft 457 kts 63°
2026-05-06 12:48 45.28452 25.57065 32965 ft 458 kts 63°
2026-05-06 12:48 45.29911 25.61072 32951 ft 452 kts 50°
2026-05-06 12:48 45.32010 25.64281 32957 ft 443 kts 38°
2026-05-06 12:49 45.36165 25.70806 32950 ft 451 kts 47°
2026-05-06 12:49 45.40431 25.77323 32839 ft 448 kts 41°
2026-05-06 12:49 45.42679 25.80366 32711 ft 447 kts 40°
2026-05-06 12:50 45.44940 25.83390 32654 ft 446 kts 40°
2026-05-06 12:50 45.49430 25.89440 32588 ft 447 kts 41°
2026-05-06 12:51 45.53864 25.95610 32578 ft 447 kts 42°
2026-05-06 12:51 45.58293 26.01821 32607 ft 447 kts 42°
2026-05-06 12:52 45.62708 26.08034 32714 ft 447 kts 42°
2026-05-06 12:52 45.67091 26.14228 32785 ft 446 kts 42°
2026-05-06 12:53 45.71271 26.20776 32737 ft 449 kts 50°
2026-05-06 12:53 45.73117 26.24340 32596 ft 450 kts 52°
2026-05-06 12:53 45.74897 26.28000 32398 ft 448 kts 54°
2026-05-06 12:53 45.76557 26.31779 32168 ft 447 kts 56°
2026-05-06 12:54 45.78112 26.35576 31888 ft 442 kts 57°
2026-05-06 12:54 45.79630 26.39365 31593 ft 439 kts 57°
2026-05-06 12:54 45.81140 26.43155 31258 ft 436 kts 57°
2026-05-06 12:54 45.82627 26.46895 30928 ft 433 kts 57°
2026-05-06 12:55 45.84094 26.50593 30580 ft 430 kts 57°
2026-05-06 12:55 45.85578 26.54340 30138 ft 429 kts 57°
2026-05-06 12:55 45.87031 26.58008 29705 ft 429 kts 57°
2026-05-06 12:55 45.88497 26.61723 29295 ft 427 kts 57°
2026-05-06 12:56 45.89956 26.65435 28881 ft 424 kts 58°
2026-05-06 12:56 45.91391 26.69095 28385 ft 424 kts 58°
2026-05-06 12:56 45.92839 26.72760 27894 ft 423 kts 58°
2026-05-06 12:56 45.94278 26.76387 27430 ft 420 kts 58°
2026-05-06 12:57 45.95703 26.80063 26964 ft 418 kts 60°
2026-05-06 12:57 45.97058 26.83689 26517 ft 414 kts 59°
2026-05-06 12:57 45.98586 26.87128 26087 ft 408 kts 53°
2026-05-06 12:57 46.00266 26.90352 25672 ft 402 kts 51°
2026-05-06 12:58 46.02002 26.93500 25220 ft 397 kts 47°
2026-05-06 12:58 46.03904 26.96341 24686 ft 394 kts 43°
2026-05-06 12:58 46.05877 26.99015 24122 ft 392 kts 41°
2026-05-06 12:58 46.07874 27.01659 23565 ft 390 kts 41°
2026-05-06 12:59 46.09862 27.04278 23020 ft 387 kts 41°
2026-05-06 12:59 46.11836 27.06857 22371 ft 388 kts 41°
2026-05-06 12:59 46.13843 27.09450 21701 ft 387 kts 41°
2026-05-06 12:59 46.15850 27.12026 21050 ft 386 kts 41°
2026-05-06 13:00 46.17854 27.14587 20400 ft 383 kts 41°
2026-05-06 13:00 46.19825 27.17099 19763 ft 380 kts 41°
2026-05-06 13:00 46.21778 27.19585 19129 ft 377 kts 41°
2026-05-06 13:00 46.23752 27.22092 18486 ft 374 kts 41°
2026-05-06 13:01 46.25692 27.24554 17847 ft 371 kts 41°
2026-05-06 13:01 46.27612 27.26986 17209 ft 368 kts 41°
2026-05-06 13:01 46.29541 27.29426 16561 ft 365 kts 41°
2026-05-06 13:01 46.31440 27.31825 15983 ft 361 kts 41°
2026-05-06 13:02 46.33310 27.34185 15420 ft 357 kts 41°
2026-05-06 13:02 46.35160 27.36523 14877 ft 352 kts 41°
2026-05-06 13:02 46.36970 27.38816 14371 ft 348 kts 41°
2026-05-06 13:02 46.38776 27.41108 13853 ft 344 kts 41°
2026-05-06 13:03 46.40578 27.43401 13326 ft 340 kts 41°
2026-05-06 13:03 46.42325 27.45629 12804 ft 338 kts 41°
2026-05-06 13:03 46.44080 27.47876 12276 ft 335 kts 41°
2026-05-06 13:03 46.45816 27.50106 11759 ft 332 kts 41°
2026-05-06 13:04 46.47503 27.52325 11257 ft 329 kts 44°
2026-05-06 13:04 46.48909 27.54922 10746 ft 327 kts 54°
2026-05-06 13:04 46.50314 27.57504 10273 ft 322 kts 51°
2026-05-06 13:04 46.51640 27.60014 10221 ft 306 kts 52°
2026-05-06 13:05 46.52874 27.62393 10211 ft 290 kts 52°
2026-05-06 13:05 46.54058 27.64678 10163 ft 277 kts 52°
2026-05-06 13:05 46.55226 27.66929 10021 ft 279 kts 53°
2026-05-06 13:05 46.56378 27.69146 9862 ft 278 kts 53°
2026-05-06 13:06 46.57550 27.71395 9736 ft 277 kts 53°
2026-05-06 13:06 46.58711 27.73618 9624 ft 276 kts 53°
2026-05-06 13:06 46.59760 27.75953 9509 ft 276 kts 59°
2026-05-06 13:06 46.60726 27.78329 9402 ft 276 kts 60°
2026-05-06 13:07 46.61695 27.80742 9299 ft 282 kts 60°
2026-05-06 13:07 46.62688 27.83214 9258 ft 282 kts 60°
2026-05-06 13:07 46.63684 27.85689 9219 ft 282 kts 60°
2026-05-06 13:07 46.64671 27.88135 9185 ft 281 kts 60°
2026-05-06 13:08 46.65657 27.90575 9150 ft 280 kts 60°
2026-05-06 13:08 46.66637 27.93012 9119 ft 279 kts 60°
2026-05-06 13:08 46.67614 27.95455 9022 ft 281 kts 60°
2026-05-06 13:08 46.68586 27.97894 8912 ft 272 kts 60°
2026-05-06 13:09 46.69516 28.00235 8710 ft 267 kts 60°
2026-05-06 13:09 46.70441 28.02581 8451 ft 264 kts 60°
2026-05-06 13:09 46.71346 28.04871 8192 ft 262 kts 60°
2026-05-06 13:09 46.72255 28.07174 7946 ft 259 kts 60°
2026-05-06 13:10 46.73140 28.09409 7740 ft 255 kts 60°
2026-05-06 13:10 46.74028 28.11646 7507 ft 252 kts 60°
2026-05-06 13:10 46.74897 28.13831 7260 ft 251 kts 60°
2026-05-06 13:10 46.75776 28.16033 7003 ft 249 kts 58°
2026-05-06 13:11 46.76905 28.17888 6801 ft 245 kts 43°
2026-05-06 13:11 46.78184 28.19515 6635 ft 241 kts 41°
2026-05-06 13:11 46.79443 28.21077 6410 ft 239 kts 42°
2026-05-06 13:11 46.80705 28.22676 6164 ft 240 kts 41°
2026-05-06 13:12 46.81958 28.24254 5879 ft 240 kts 41°
2026-05-06 13:12 46.83232 28.25851 5582 ft 240 kts 42°
2026-05-06 13:12 46.84485 28.27418 5307 ft 239 kts 41°
2026-05-06 13:12 46.85646 28.29145 4998 ft 238 kts 59°
2026-05-06 13:13 46.86345 28.31269 4787 ft 232 kts 68°
2026-05-06 13:13 46.86979 28.33441 4542 ft 231 kts 68°
2026-05-06 13:13 46.87604 28.35567 4287 ft 230 kts 68°
2026-05-06 13:13 46.88238 28.37725 4019 ft 230 kts 68°
2026-05-06 13:14 46.88860 28.39858 3761 ft 229 kts 68°
2026-05-06 13:14 46.89479 28.42013 3512 ft 228 kts 69°
2026-05-06 13:14 46.90025 28.44169 3269 ft 226 kts 74°
2026-05-06 13:14 46.90433 28.46357 3023 ft 225 kts 78°
2026-05-06 13:15 46.90766 28.48606 2768 ft 225 kts 81°
2026-05-06 13:15 46.90996 28.50844 2538 ft 223 kts 85°
2026-05-06 13:15 46.91156 28.53106 2325 ft 223 kts 86°
2026-05-06 13:15 46.91286 28.55351 2117 ft 224 kts 87°
2026-05-06 13:16 46.91399 28.57621 2002 ft 219 kts 88°
2026-05-06 13:16 46.91497 28.59791 1956 ft 211 kts 88°
2026-05-06 13:16 46.91650 28.61888 1954 ft 200 kts 81°
2026-05-06 13:16 46.91928 28.63819 2001 ft 193 kts 79°
2026-05-06 13:17 46.92162 28.65727 2018 ft 188 kts 85°
2026-05-06 13:17 46.92270 28.67589 2071 ft 177 kts 90°
2026-05-06 13:17 46.92299 28.69291 2085 ft 165 kts 92°
2026-05-06 13:17 46.92312 28.70961 2011 ft 160 kts 92°
2026-05-06 13:18 46.92335 28.72560 1904 ft 160 kts 91°
2026-05-06 13:18 46.92369 28.74219 1786 ft 162 kts 91°
2026-05-06 13:18 46.92410 28.75829 1811 ft 157 kts 91°
2026-05-06 13:18 46.92448 28.77437 1758 ft 158 kts 91°
2026-05-06 13:19 46.92482 28.79007 1781 ft 155 kts 91°
2026-05-06 13:19 46.92516 28.80605 1707 ft 159 kts 91°
2026-05-06 13:19 46.92551 28.82251 1510 ft 168 kts 91°
2026-05-06 13:19 46.92606 28.84009 1338 ft 175 kts 86°
2026-05-06 13:20 46.92714 28.85790 1214 ft 173 kts 91°
2026-05-06 13:20 46.92740 28.87492 990 ft 166 kts 90°
2026-05-06 13:20 46.92750 28.89096 773 ft 149 kts 91°
2026-05-06 13:20 46.92747 28.90594 462 ft 148 kts 92°
2026-05-06 13:21 46.92760 28.92086 340 ft 143 kts 90°
2026-05-06 13:21 46.92781 28.93283 336 ft 91 kts 92°
2026-05-06 13:21 46.92789 28.94134 335 ft 63 kts 88°
2026-05-06 13:21 46.92827 28.94516 334 ft 28 kts 89°
2026-05-06 13:22 46.92826 28.94772 334 ft 23 kts 90°
2026-05-06 13:22 46.92823 28.95002 334 ft 18 kts 89°
2026-05-06 13:22 46.92867 28.95097 334 ft 11 kts 12°
2026-05-06 13:22 46.92937 28.95104 334 ft 9 kts
2026-05-06 13:23 46.93006 28.95070 334 ft 13 kts 304°
2026-05-06 13:23 46.93036 28.94873 334 ft 27 kts 276°
2026-05-06 13:23 46.93054 28.94586 334 ft 28 kts 277°
2026-05-06 13:23 46.93077 28.94310 334 ft 27 kts 277°
2026-05-06 13:24 46.93086 28.94026 334 ft 27 kts 266°
2026-05-06 13:24 46.93107 28.93811 334 ft 17 kts 284°
2026-05-06 13:24 46.93142 28.93650 335 ft 9 kts 312°
2026-05-06 13:24 46.93201 28.93631 335 ft 9 kts
2026-05-06 13:25 46.93253 28.93639 335 ft 5 kts 342°
2026-05-06 13:25 46.93273 28.93597 335 ft 5 kts 282°
2026-05-06 13:25 46.93278 28.93548 335 ft 0 kts 276°